Location: Blankensee
(53.5126°N, 14.3055°E)
Time: 19:01:09
(UTC+00:00)

KORONAS-FOTON - Pass Details

Date: 08 August 2020
Orbit: 506 x 531 km, 82.4° (Epoch: 20 September)

Event Time Altitude Azimuth Distance (km) Brightness Sun altitude
Rises 00:21:37 0° 350° (N) 2,627 8.5 -18.7°
Reaches altitude 10° 00:23:46 10° 353° (N) 1,736 7.4 -18.6°
Maximum altitude 00:27:33 67° 77° (ENE) 556 4.0 -18.4°
Enters shadow 00:29:01 35° 149° (SSE) 845 4.5 -18.3°
